Location: Bakhuizen
(52.8696°N, 5.4575°E)
Time: 03:54:45
(UTC+00:00)

Cosmos 1934 Rocket - Pass Details

Date: 11 May 2021
Orbit: 937 x 1000 km, 83.0° (Epoch: 14 June)

Event Time Altitude Azimuth Distance (km) Brightness Sun altitude
Rises 23:30:11 0° 350° (N) 3,666 8.6 -19.0°
Reaches altitude 10° 23:32:44 10° 352° (N) 2,706 7.6 -19.0°
Maximum altitude 23:38:55 72° 78° (ENE) 1,000 4.0 -19.0°
Enters shadow 23:42:11 29° 156° (SSE) 1,664 4.7 -19.0°
